TimeIST,TemperatureF,Dew PointF,Humidity,Sea Level PressureIn,VisibilityMPH,Wind Direction,Wind SpeedMPH,Gust SpeedMPH,PrecipitationIn,Events,Conditions,WindDirDegrees,DateUTC
12:00 AM,75.2,69.8,83,29.86,1.0,ENE,4.6,-,N/A,,Mist,60,2013-10-16 18:30:00
12:30 AM,75.2,69.8,83,29.83,1.0,East,3.5,-,N/A,,Mist,90,2013-10-16 19:00:00
1:00 AM,75.2,69.8,83,29.83,1.0,Calm,Calm,-,N/A,,Mist,0,2013-10-16 19:30:00
2:00 AM,75.2,69.8,83,29.83,0.7,Calm,Calm,-,N/A,,Mist,0,2013-10-16 20:30:00
2:30 AM,75.2,69.8,83,29.83,0.7,Calm,Calm,-,N/A,,Mist,0,2013-10-16 21:00:00
3:00 AM,73.4,69.8,88,29.80,0.6,Calm,Calm,-,N/A,,Mist,0,2013-10-16 21:30:00
3:30 AM,73.4,69.8,88,29.80,0.6,ESE,4.6,-,N/A,,Mist,120,2013-10-16 22:00:00
4:00 AM,73.4,69.8,88,29.83,0.6,East,4.6,-,N/A,,Mist,100,2013-10-16 22:30:00
4:30 AM,73.4,69.8,88,29.83,0.6,ESE,3.5,-,N/A,,Mist,110,2013-10-16 23:00:00
5:00 AM,73.4,69.8,88,29.83,0.6,ESE,3.5,-,N/A,,Mist,120,2013-10-16 23:30:00
5:30 AM,73.4,69.8,88,29.83,0.6,Calm,Calm,-,N/A,,Mist,0,2013-10-17 00:00:00
6:00 AM,73.4,69.8,88,29.83,0.6,Calm,Calm,-,N/A,,Mist,0,2013-10-17 00:30:00
6:30 AM,73.4,69.8,88,29.86,0.6,Calm,Calm,-,N/A,,Mist,0,2013-10-17 01:00:00
7:00 AM,71.6,69.8,94,29.86,0.6,East,3.5,-,N/A,,Mist,100,2013-10-17 01:30:00
7:30 AM,71.6,69.8,94,29.89,0.6,East,3.5,-,N/A,,Mist,100,2013-10-17 02:00:00
9:00 AM,80.6,68.0,65,29.89,0.9,East,5.8,-,N/A,,Haze,100,2013-10-17 03:30:00
10:00 AM,86.0,71.6,62,29.89,1.5,Calm,Calm,-,N/A,,Haze,0,2013-10-17 04:30:00
10:30 AM,87.8,69.8,55,29.89,1.7,Calm,Calm,-,N/A,,Haze,0,2013-10-17 05:00:00
11:00 AM,87.8,71.6,58,29.89,1.7,Calm,Calm,-,N/A,,Haze,0,2013-10-17 05:30:00
12:00 PM,89.6,68.0,49,29.89,1.9,NE,5.8,-,N/A,,Haze,50,2013-10-17 06:30:00
12:30 PM,89.6,66.2,46,29.86,2.2,SE,4.6,-,N/A,,Haze,130,2013-10-17 07:00:00
1:00 PM,91.4,64.4,41,29.86,2.2,ESE,5.8,-,N/A,,Haze,110,2013-10-17 07:30:00
1:30 PM,91.4,64.4,41,29.86,2.2,East,5.8,-,N/A,,Haze,100,2013-10-17 08:00:00
2:00 PM,91.4,66.2,43,29.83,2.2,ESE,8.1,-,N/A,,Haze,120,2013-10-17 08:30:00
2:30 PM,91.4,66.2,43,29.83,2.2,East,5.8,-,N/A,,Haze,100,2013-10-17 09:00:00
3:00 PM,91.4,66.2,43,29.83,2.2,East,5.8,-,N/A,,Haze,90,2013-10-17 09:30:00
3:30 PM,91.4,66.2,43,29.83,2.2,East,5.8,-,N/A,,Haze,100,2013-10-17 10:00:00
4:00 PM,91.4,66.2,43,29.80,2.2,ESE,5.8,-,N/A,,Haze,110,2013-10-17 10:30:00
4:30 PM,89.6,66.2,46,29.80,2.2,ESE,4.6,-,N/A,,Haze,120,2013-10-17 11:00:00
5:00 PM,89.6,68.0,49,29.80,2.2,ESE,4.6,-,N/A,,Haze,120,2013-10-17 11:30:00
5:30 PM,87.8,68.0,52,29.83,2.2,SSE,4.6,-,N/A,,Haze,150,2013-10-17 12:00:00
6:00 PM,87.8,69.8,55,29.83,-9999.0,SE,4.6,-,N/A,,Haze,130,2013-10-17 12:30:00
7:00 PM,84.2,71.6,66,29.83,1.6,ENE,4.6,-,N/A,,Haze,70,2013-10-17 13:30:00
7:30 PM,82.4,71.6,70,29.83,1.4,East,4.6,-,N/A,,Haze,90,2013-10-17 14:00:00
8:00 PM,80.6,71.6,74,29.86,1.4,ESE,4.6,-,N/A,,Haze,110,2013-10-17 14:30:00
8:30 PM,80.6,71.6,74,29.86,1.4,ESE,5.8,-,N/A,,Haze,110,2013-10-17 15:00:00
9:00 PM,80.6,71.6,74,29.86,1.4,ESE,5.8,-,N/A,,Haze,110,2013-10-17 15:30:00
9:30 PM,78.8,71.6,78,29.86,1.2,East,4.6,-,N/A,,Mist,80,2013-10-17 16:00:00
10:00 PM,78.8,71.6,78,29.86,1.1,East,3.5,-,N/A,,Mist,80,2013-10-17 16:30:00
10:30 PM,78.8,71.6,78,29.86,1.0,East,4.6,-,N/A,,Mist,90,2013-10-17 17:00:00
11:30 PM,77.0,71.6,83,29.86,0.9,East,4.6,-,N/A,,Mist,80,2013-10-17 18:00:00